Time,TemperatureF,DewpointF,PressureIn,WindDirection,WindDirectionDegrees,WindSpeedMPH,WindSpeedGustMPH,Humidity,HourlyPrecipIn,Conditions,Clouds,dailyrainin,SoftwareType,DateUTC
2013-01-10 09:45:00,42.3,25.0,30.31,ENE,64,6.0,6.0,50,0.00,,,0.00,Wunderground v.1.15,2013-01-10 14:45:00,
2013-01-10 09:50:00,42.5,24.7,30.31,North,350,4.0,6.0,49,0.00,,,0.00,Wunderground v.1.15,2013-01-10 14:50:00,
2013-01-10 09:55:00,42.6,24.3,30.31,NE,52,6.0,7.0,48,0.00,,,0.00,Wunderground v.1.15,2013-01-10 14:55:00,
2013-01-10 10:00:00,42.7,25.3,30.31,ENE,71,5.0,6.0,50,0.00,,,0.00,Wunderground v.1.15,2013-01-10 15:00:00,
2013-01-10 10:10:00,43.0,24.6,30.32,ENE,65,5.0,6.0,48,0.00,,,0.00,Wunderground v.1.15,2013-01-10 15:10:00,
2013-01-10 10:20:00,43.2,24.8,30.32,North,10,5.0,5.0,48,0.00,,,0.00,Wunderground v.1.15,2013-01-10 15:20:00,
2013-01-10 10:30:00,43.5,24.6,30.32,East,84,5.0,5.0,47,0.00,,,0.00,Wunderground v.1.15,2013-01-10 15:30:00,
2013-01-10 10:40:00,43.7,24.2,30.32,East,87,6.0,6.0,46,0.00,,,0.00,Wunderground v.1.15,2013-01-10 15:40:00,
2013-01-10 10:50:00,43.8,24.9,30.32,NE,50,5.0,5.0,47,0.00,,,0.00,Wunderground v.1.15,2013-01-10 15:50:00,
2013-01-10 11:00:00,44.2,24.7,30.32,North,5,5.0,6.0,46,0.00,,,0.00,Wunderground v.1.15,2013-01-10 16:00:00,
2013-01-10 11:10:00,44.4,25.4,30.30,NE,49,6.0,6.0,47,0.00,,,0.00,Wunderground v.1.15,2013-01-10 16:10:00,
2013-01-10 11:20:00,44.4,25.4,30.30,NE,35,7.0,7.0,47,0.00,,,0.00,Wunderground v.1.15,2013-01-10 16:20:00,
2013-01-10 11:25:00,44.6,24.5,30.29,North,351,5.0,12.0,45,0.00,,,0.00,Wunderground v.1.15,2013-01-10 16:25:00,
2013-01-10 11:35:00,44.7,24.6,30.30,SSE,157,7.0,11.0,45,0.00,,,0.00,Wunderground v.1.15,2013-01-10 16:35:00,
2013-01-10 11:40:00,44.9,24.8,30.30,NE,39,5.0,5.0,45,0.00,,,0.00,Wunderground v.1.15,2013-01-10 16:40:00,
2013-01-10 11:50:00,45.4,25.3,30.30,NE,53,4.0,4.0,45,0.00,,,0.00,Wunderground v.1.15,2013-01-10 16:50:00,
2013-01-10 11:55:00,45.4,24.7,30.30,NNE,26,4.0,4.0,44,0.00,,,0.00,Wunderground v.1.15,2013-01-10 16:55:00,
2013-01-10 12:05:00,45.9,25.2,30.30,North,11,4.0,4.0,44,0.00,,,0.00,Wunderground v.1.15,2013-01-10 17:05:00,
2013-01-10 12:15:00,45.9,25.7,30.30,NNE,27,4.0,4.0,45,0.00,,,0.00,Wunderground v.1.15,2013-01-10 17:15:00,
2013-01-10 12:25:00,46.0,24.7,30.30,NE,50,5.0,12.0,43,0.00,,,0.00,Wunderground v.1.15,2013-01-10 17:25:00,
2013-01-10 12:35:00,45.8,25.6,30.30,NNE,33,6.0,7.0,45,0.00,,,0.00,Wunderground v.1.15,2013-01-10 17:35:00,
2013-01-10 12:45:00,46.0,24.7,30.30,East,100,5.0,7.0,43,0.00,,,0.00,Wunderground v.1.15,2013-01-10 17:45:00,
2013-01-10 12:55:00,46.4,25.1,30.30,NE,44,5.0,7.0,43,0.00,,,0.00,Wunderground v.1.15,2013-01-10 17:55:00,
2013-01-10 13:05:00,46.1,24.8,30.31,NE,48,6.0,9.0,43,0.00,,,0.00,Wunderground v.1.15,2013-01-10 18:05:00,
2013-01-10 13:15:00,46.0,24.7,30.31,NE,37,6.0,12.0,43,0.00,,,0.00,Wunderground v.1.15,2013-01-10 18:15:00,
2013-01-10 13:20:00,46.1,25.4,30.31,ENE,78,6.0,6.0,44,0.00,,,0.00,Wunderground v.1.15,2013-01-10 18:20:00,
2013-01-10 13:30:00,46.5,25.2,30.31,ENE,73,5.0,6.0,43,0.00,,,0.00,Wunderground v.1.15,2013-01-10 18:30:00,
2013-01-10 13:35:00,46.8,25.5,30.32,ESE,106,4.0,6.0,43,0.00,,,0.00,Wunderground v.1.15,2013-01-10 18:35:00,
2013-01-10 13:40:00,46.8,24.9,30.32,ENE,76,5.0,5.0,42,0.00,,,0.00,Wunderground v.1.15,2013-01-10 18:40:00,
2013-01-10 13:45:00,46.9,25.5,30.32,ENE,78,5.0,8.0,43,0.00,,,0.00,Wunderground v.1.15,2013-01-10 18:45:00,
2013-01-10 13:55:00,46.8,25.5,30.33,NE,37,5.0,6.0,43,0.00,,,0.00,Wunderground v.1.15,2013-01-10 18:55:00,
2013-01-10 14:05:00,47.3,24.8,30.33,NNE,31,3.0,9.0,41,0.00,,,0.00,Wunderground v.1.15,2013-01-10 19:05:00,
2013-01-10 14:10:00,47.2,25.3,30.34,NNE,22,5.0,5.0,42,0.00,,,0.00,Wunderground v.1.15,2013-01-10 19:10:00,
2013-01-10 14:20:00,47.0,24.5,30.34,ENE,65,5.0,8.0,41,0.00,,,0.00,Wunderground v.1.15,2013-01-10 19:20:00,
2013-01-10 14:30:00,46.9,25.0,30.34,East,101,6.0,9.0,42,0.00,,,0.00,Wunderground v.1.15,2013-01-10 19:30:00,
2013-01-10 14:35:00,46.7,24.8,30.35,ESE,105,6.0,9.0,42,0.00,,,0.00,Wunderground v.1.15,2013-01-10 19:35:00,
2013-01-10 14:45:00,46.6,25.3,30.35,NE,51,4.0,5.0,43,0.00,,,0.00,Wunderground v.1.15,2013-01-10 19:45:00,
2013-01-10 14:50:00,46.5,24.6,30.35,East,98,4.0,4.0,42,0.00,,,0.00,Wunderground v.1.15,2013-01-10 19:50:00,
2013-01-10 15:00:00,46.1,24.3,30.36,NNE,32,5.0,6.0,42,0.00,,,0.00,Wunderground v.1.15,2013-01-10 20:00:00,
2013-01-10 15:05:00,45.9,24.6,30.36,NE,39,5.0,6.0,43,0.00,,,0.00,Wunderground v.1.15,2013-01-10 20:05:00,
2013-01-10 15:15:00,46.2,24.3,30.36,ENE,78,5.0,5.0,42,0.00,,,0.00,Wunderground v.1.15,2013-01-10 20:15:00,
2013-01-10 15:25:00,46.0,24.7,30.36,ENE,75,5.0,5.0,43,0.00,,,0.00,Wunderground v.1.15,2013-01-10 20:25:00,
2013-01-10 15:30:00,45.6,24.4,30.36,ENE,62,5.0,6.0,43,0.00,,,0.00,Wunderground v.1.15,2013-01-10 20:30:00,
2013-01-10 15:40:00,45.2,24.6,30.37,ESE,108,5.0,5.0,44,0.00,,,0.00,Wunderground v.1.15,2013-01-10 20:40:00,
2013-01-10 15:50:00,45.0,24.4,30.38,NE,49,2.0,2.0,44,0.00,,,0.00,Wunderground v.1.15,2013-01-10 20:50:00,